User: anonymous   Login
Location: Unspecified
(0.0000°N, 0.0000°E)
Time: 17:13:44
(UTC+00:00)
Language:

PERSEUS M2 - Orbit

View from above orbital plane
View from above orbital plane
View from above satellite
View from above satellite

Ground track
Ground track

The orbit data is extracted from the following two-line orbital elements,

1 40037U 14033AD  23272.79716458  .00003061  00000-0  33212-3 0  9992
2 40037  97.9074 198.2671 0013264 343.4820  16.5963 14.88852522503414
Epoch (UTC): 29 September 2023 19:07:55
Eccentricity: 0.0013264
inclination: 97.9074°
perigee height: 592 km
apogee height: 611 km
right ascension of ascending node: 198.2671°
argument of perigee: 343.4820°
revolutions per day: 14.88852522
mean anomaly at epoch: 16.5963°
orbit number at epoch: 50341

The dashed part of the orbit path shows where the satellite is in the earth's shadow,  

DLR